EUTELSAT 117 WEST B (W*)

Last updated on Wed Nov 05 2025 00:03:27 GMT+0000 (Coordinated Universal Time)

1 41589U 16038B 25308.30368097 .00000001 00000+0 00000+0 0 9998 2 41589 0.0152 106.2558 0000423 313.3986 336.4915 1.00271037 34409
UTC large
Height (km)
Speed (km/s)
/
Latitude / Longitude
Inclination (degrees)
Orbital Period (minutes)
Azimuth
Elevation
Range (km)
Doppler Factor

Next 0 passes for location: London (51.5072 / 0.1276)

Sorry there are no passes over London.